Beeville, TX

4:16 PM CST on December 07, 2016 (GMT -0600)
Beeville

Weather History for KBEA - June, 2013

Change the Weather History Date:

Tuesday, June 4, 2013

  Actual Average (KCRP) Record (KCRP)
Temperature  
Mean Temperature 82 °F 81 °F  
Max Temperature 96 °F 90 °F 97 °F (1990)
Min Temperature 67 °F 73 °F 61 °F (1970)
Degree Days  
Heating Degree Days 0 0  
Month to date heating degree days 0  
Since 1 June heating degree days 0  
Since 1 July heating degree days 898  
Cooling Degree Days 16 16  
Month to date cooling degree days 64  
Year to date cooling degree days 905  
Since 1 June cooling degree days 64  
Growing Degree Days 32 (Base 50)    
Moisture  
Dew Point 69 °F    
Average Humidity 72    
Maximum Humidity 100    
Minimum Humidity 31    
Precipitation  
Precipitation 0.00 in 0.10 in 2.29 in (1951)
Month to date precipitation 0.41  
Year to date precipitation 10.68  
Snow  
Snow 0.00 in - - ()
Month to date snowfall  
Since 1 June snowfall  
Since 1 July snowfall  
Snow Depth -    
Sea Level Pressure  
Sea Level Pressure 29.86 in    
Wind  
Wind Speed 4 mph (ESE)    
Max Wind Speed 13 mph    
Max Gust Speed 21 mph    
Visibility 8 miles    
Events Fog    
T = Trace of Precipitation, MM = Missing Value Source: NWS Daily Summary

Daily Weather History Graph

Daily Weather History Graph

Search for Another Location

Airport or City:

Trip Planner

Search our weather history database for the weather conditions in past years. The results will help you decide how hot, cold, wet, or windy it might be!

Date:

Astronomy

Jun. 04, 2013 Rise Set
Actual Time 6:33 AM CDT 8:25 PM CDT
Civil Twilight 6:07 AM CDT 8:52 PM CDT
Nautical Twilight 5:35 AM CDT 9:24 PM CDT
Astronomical Twilight 5:01 AM CDT 9:58 PM CDT
Moon 3:48 AM CDT (6/4) 5:09 PM CDT (6/4)
Length of Visible Light 14h 45m
Length of Day
13h 52m
Waning Crescent, 14% of the Moon is Illuminated
Jun 4
Waning Crescent
Jun 8
New
Jun 16
First Quarter
Jun 23
Full
Jun 29
Last Quarter

Hourly Weather History & Observations

Time (CDT) Temp. Heat Index Dew Point Humidity Pressure Visibility Wind Dir Wind Speed Gust Speed Precip Events Conditions
12:15 AM 73.6 °F - 72.1 °F 95% 29.89 in 10.0 mi ESE 3.5 mph - N/A   Clear
12:35 AM 72.9 °F - 71.8 °F 96% 29.89 in 10.0 mi Calm Calm - N/A   Clear
12:55 AM 72.9 °F - 72.0 °F 97% 29.89 in 10.0 mi Calm Calm - N/A   Clear
1:15 AM 72.5 °F - 72.0 °F 98% 29.88 in 10.0 mi ESE 3.5 mph - N/A   Clear
1:35 AM 71.6 °F - 71.2 °F 99% 29.88 in 10.0 mi Calm Calm - N/A   Clear
1:55 AM 72.0 °F - 71.8 °F 99% 29.88 in 10.0 mi Calm Calm - N/A   Clear
2:15 AM 70.7 °F - 70.7 °F 100% 29.87 in 10.0 mi Calm Calm - N/A   Clear
2:35 AM 70.7 °F - 70.7 °F 100% 29.87 in 5.0 mi Calm Calm - N/A   Clear
2:55 AM 71.8 °F - 71.8 °F 100% 29.86 in 10.0 mi Calm Calm - N/A   Clear
3:15 AM 72.0 °F - 72.0 °F 100% 29.86 in 7.0 mi SSW 3.5 mph - N/A   Clear
3:35 AM 72.0 °F - 71.8 °F 99% 29.85 in 10.0 mi SSW 3.5 mph - N/A   Clear
3:55 AM 72.5 °F - 72.0 °F 98% 29.85 in 10.0 mi Calm Calm - N/A   Clear
4:15 AM 71.8 °F - 71.6 °F 99% 29.85 in 10.0 mi South 3.5 mph - N/A   Clear
4:35 AM 70.3 °F - 70.3 °F 100% 29.85 in 2.5 mi Calm Calm - N/A   Clear
4:55 AM 71.6 °F - 71.6 °F 100% 29.86 in 7.0 mi Calm Calm - N/A   Clear
5:15 AM 69.8 °F - 69.8 °F 100% 29.86 in 0.2 mi Calm Calm - N/A Fog Fog
5:35 AM 67.5 °F - 67.5 °F 100% 29.86 in 0.2 mi East 3.5 mph - N/A Fog Fog
5:55 AM 68.4 °F - 68.4 °F 100% 29.86 in 0.2 mi East 3.5 mph - N/A Fog Fog
6:15 AM 68.0 °F - 68.0 °F 100% 29.87 in 0.2 mi East 3.5 mph - N/A Fog Fog
6:35 AM 68.0 °F - 68.0 °F 100% 29.87 in 0.2 mi Calm Calm - N/A Fog Fog
6:55 AM 68.7 °F - 68.7 °F 100% 29.87 in 0.2 mi Calm Calm - N/A Fog Fog
7:15 AM 69.6 °F - 69.6 °F 100% 29.88 in 0.2 mi Calm Calm - N/A Fog Fog
7:35 AM 70.3 °F - 70.3 °F 100% 29.89 in 0.2 mi Calm Calm - N/A Fog Fog
7:55 AM 71.8 °F - 71.8 °F 100% 29.90 in 0.5 mi Calm Calm - N/A Fog Fog
8:15 AM 73.6 °F - 73.6 °F 100% 29.89 in 10.0 mi SSW 4.6 mph - N/A   Scattered Clouds
8:35 AM 74.8 °F - 74.8 °F 100% 29.89 in 10.0 mi South 4.6 mph - N/A   Clear
8:55 AM 77.7 °F - 73.6 °F 87% 29.90 in 10.0 mi South 5.8 mph - N/A   Scattered Clouds
9:15 AM 79.5 °F - 72.1 °F 78% 29.90 in 10.0 mi SSW 5.8 mph - N/A   Mostly Cloudy
9:35 AM 81.1 °F 85.0 °F 70.9 °F 71% 29.90 in 10.0 mi South 9.2 mph - N/A   Mostly Cloudy
9:55 AM 80.8 °F 84.6 °F 70.9 °F 72% 29.90 in 10.0 mi South 8.1 mph - N/A   Mostly Cloudy
10:15 AM 83.8 °F 88.3 °F 70.3 °F 64% 29.89 in 10.0 mi SSE 10.4 mph - N/A   Mostly Cloudy
10:35 AM 84.2 °F 88.4 °F 70.0 °F 62% 29.90 in 10.0 mi SSE 6.9 mph - N/A   Mostly Cloudy
10:55 AM 85.1 °F 89.4 °F 69.8 °F 60% 29.90 in 10.0 mi South 6.9 mph - N/A   Mostly Cloudy
11:15 AM 85.8 °F 90.1 °F 69.4 °F 58% 29.90 in 10.0 mi South 6.9 mph - N/A   Mostly Cloudy
11:35 AM 86.0 °F 90.1 °F 69.1 °F 57% 29.90 in 10.0 mi ESE 6.9 mph - N/A   Scattered Clouds
11:55 AM 87.6 °F 91.9 °F 68.9 °F 54% 29.90 in 10.0 mi ESE 10.4 mph - N/A   Clear
12:15 PM 87.1 °F 90.9 °F 68.5 °F 54% 29.90 in 10.0 mi ENE 6.9 mph - N/A   Clear
12:35 PM 89.4 °F 94.4 °F 69.4 °F 52% 29.90 in 10.0 mi East 5.8 mph - N/A   Clear
12:55 PM 89.4 °F 94.0 °F 69.3 °F 51% 29.89 in 10.0 mi SE 6.9 mph - N/A   Clear
1:15 PM 90.3 °F 94.7 °F 69.1 °F 49% 29.89 in 10.0 mi East 6.9 mph - N/A   Clear
1:35 PM 91.0 °F 95.2 °F 68.4 °F 47% 29.88 in 10.0 mi East 6.9 mph - N/A   Clear
1:55 PM 91.2 °F 95.0 °F 67.6 °F 46% 29.87 in 10.0 mi East 8.1 mph 16.1 mph N/A   Clear
2:15 PM 91.6 °F 95.2 °F 67.5 °F 45% 29.86 in 10.0 mi ENE 5.8 mph - N/A   Clear
2:35 PM 92.3 °F 95.6 °F 66.9 °F 43% 29.86 in 10.0 mi ENE 10.4 mph - N/A   Clear
2:55 PM 93.4 °F 96.1 °F 65.8 °F 40% 29.85 in 10.0 mi East 8.1 mph - N/A   Clear
3:15 PM 93.7 °F 96.7 °F 66.0 °F 40% 29.85 in 10.0 mi East 6.9 mph - N/A   Clear
3:35 PM 93.9 °F 96.1 °F 65.1 °F 38% 29.84 in 10.0 mi East 8.1 mph - N/A   Clear
3:55 PM 94.6 °F 96.8 °F 64.9 °F 37% 29.84 in 10.0 mi East 9.2 mph - N/A   Clear
4:15 PM 95.2 °F 95.9 °F 62.2 °F 33% 29.83 in 10.0 mi East 9.2 mph - N/A   Clear
4:35 PM 95.9 °F 97.0 °F 62.8 °F 33% 29.82 in 10.0 mi ESE 10.4 mph - N/A   Clear
4:55 PM 96.3 °F 96.7 °F 61.0 °F 31% 29.82 in 10.0 mi East 8.1 mph - N/A   Clear
5:15 PM 95.5 °F 96.0 °F 61.5 °F 32% 29.81 in 10.0 mi East 9.2 mph 17.3 mph N/A   Clear
5:35 PM 95.9 °F 96.6 °F 61.5 °F 32% 29.80 in 10.0 mi East 6.9 mph - N/A   Clear
5:55 PM 94.6 °F 97.3 °F 65.1 °F 38% 29.80 in 10.0 mi East 8.1 mph - N/A   Clear
6:15 PM 94.3 °F 98.2 °F 67.3 °F 41% 29.80 in 10.0 mi East 10.4 mph - N/A   Clear
6:35 PM 92.8 °F 97.6 °F 68.5 °F 45% 29.81 in 10.0 mi East 9.2 mph - N/A   Clear
6:55 PM 91.9 °F 96.9 °F 69.3 °F 47% 29.81 in 10.0 mi East 12.7 mph - N/A   Clear
7:15 PM 90.5 °F 95.5 °F 69.8 °F 50% 29.81 in 10.0 mi East 11.5 mph - N/A   Clear
7:35 PM 88.7 °F 93.9 °F 70.0 °F 54% 29.81 in 10.0 mi ESE 12.7 mph 17.3 mph N/A   Clear
7:55 PM 86.0 °F 90.4 °F 69.8 °F 58% 29.82 in 10.0 mi ESE 10.4 mph 20.7 mph N/A   Clear
8:15 PM 83.8 °F 87.8 °F 69.4 °F 62% 29.82 in 10.0 mi ESE 10.4 mph - N/A   Clear
8:35 PM 82.4 °F 86.1 °F 69.4 °F 65% 29.83 in 10.0 mi ESE 10.4 mph - N/A   Clear
8:55 PM 81.0 °F 84.2 °F 69.4 °F 68% 29.84 in 10.0 mi SE 9.2 mph - N/A   Clear
9:15 PM 79.9 °F - 69.1 °F 69% 29.85 in 10.0 mi ESE 10.4 mph - N/A   Clear
9:35 PM 78.8 °F - 68.9 °F 72% 29.85 in 10.0 mi ESE 9.2 mph - N/A   Clear
9:55 PM 77.9 °F - 68.9 °F 74% 29.85 in 10.0 mi SE 6.9 mph - N/A   Clear
10:15 PM 77.0 °F - 68.7 °F 75% 29.86 in 10.0 mi SE 5.8 mph - N/A   Clear
10:35 PM 76.1 °F - 68.9 °F 78% 29.86 in 10.0 mi SE 6.9 mph - N/A   Clear
10:55 PM 75.6 °F - 68.9 °F 80% 29.87 in 10.0 mi SE 5.8 mph - N/A   Clear
11:15 PM 74.7 °F - 68.9 °F 82% 29.87 in 10.0 mi SE 5.8 mph - N/A   Clear
11:35 PM 73.8 °F - 68.9 °F 85% 29.87 in 10.0 mi ESE 5.8 mph - N/A   Clear
11:55 PM 72.9 °F - 69.1 °F 88% 29.88 in 10.0 mi ESE 4.6 mph - N/A   Clear